[[[{"header":{"parameterUnit":"kt","parameterCategory":2,"dx":1,"dy":1,"la1":30.253999710083008,"la2":30.299108505249023,"lo1":-89.0895004272461,"lo2":-89.04439544677734,"nx":28,"ny":28,"refTime":"2022-10-23T21:00:00:Z","depth":0,"parameterNumber":1,"parameterNumberName":"U-component_of_WINDS"},"data":[-2.2854,-2.2922,-2.2983,-2.3091,-2.3165,-2.325,-2.3301,-2.3374,-2.3448,-2.356,-2.3636,-2.3708,-2.381,-2.3919,-2.4006,-2.4038,-2.4071,-2.4048,-2.4089,-2.4129,-2.4139,-2.4148,-2.4135,-2.4054,-2.4054,-2.404,-2.404,-2.4039,-2.2875,-2.2947,-2.3022,-2.3137,-2.3202,-2.3261,-2.3358,-2.341,-2.3486,-2.3579,-2.3657,-2.3762,-2.3854,-2.3967,-2.4068,-2.4105,-2.414,-2.4127,-2.4126,-2.4142,-2.4186,-2.4171,-2.4097,-2.4097,-2.4097,-2.4097,-2.4097,-2.4097,-2.293,-2.2968,-2.3074,-2.3157,-2.3232,-2.3309,-2.3358,-2.3446,-2.3522,-2.3632,-2.3695,-2.3784,-2.3891,-2.4046,-2.4114,-2.4188,-2.4214,-2.4222,-2.4224,-2.4224,-2.4215,-2.4227,-2.4208,-2.4209,-2.4209,-2.4209,-2.421,0,-2.299,-2.3039,-2.3116,-2.321,-2.3275,-2.3356,-2.3441,-2.3474,-2.3605,-2.3663,-2.3753,-2.3817,-2.3944,-2.4038,-2.4148,-2.422,-2.4291,-2.4305,-2.4311,-2.4281,-2.424,-2.4263,-2.4332,-2.4306,-2.4307,-2.4308,-2.4308,-2.4309,-2.305,-2.3088,-2.3231,-2.3276,-2.3339,-2.3411,-2.3468,-2.3581,-2.3637,-2.3761,-2.3791,-2.3887,-2.397,-2.4107,-2.4214,-2.4311,-2.4346,-2.4329,-2.4362,-2.4331,-2.4347,-2.4344,-2.4349,-2.432,-2.4319,-2.4318,-2.4317,0,-2.3078,-2.3182,-2.3262,-2.3401,-2.3437,-2.3472,-2.3593,-2.3638,-2.372,-2.3794,-2.3818,-2.3948,-2.4037,-2.4147,-2.4273,-2.4328,-2.4391,-2.4424,-2.4354,-2.4367,-2.4363,-2.4362,-2.4331,-2.4333,-2.4417,-2.4416,-2.4415,0,-2.3171,-2.3218,-2.337,-2.3411,-2.3467,-2.3579,-2.3633,-2.3708,-2.3803,-2.3863,-2.3959,-2.4014,-2.4147,-2.4219,-2.4301,-2.4373,-2.4396,-2.4443,-2.4465,-2.4435,-2.4429,-2.4469,-2.4472,-2.4511,-2.4512,-2.4512,-2.4512,0,-2.3205,-2.3342,-2.3409,-2.3458,-2.3612,-2.3642,-2.3708,-2.3816,-2.3872,-2.3962,-2.4,-2.4099,-2.4153,-2.4228,-2.4332,-2.435,-2.4423,-2.4469,-2.4471,-2.4468,-2.4482,-2.448,-2.4424,-2.4512,-2.4512,-2.4512,-2.4512,0,-2.3297,-2.3383,-2.3465,-2.3596,-2.3628,-2.3674,-2.3777,-2.3841,-2.3948,-2.4002,-2.4075,-2.4154,-2.4225,-2.4263,-2.4364,-2.4358,-2.4406,-2.4458,-2.4461,-2.4475,-2.4514,-2.4468,-2.4403,-2.44,-2.4486,-2.4486,-2.4486,0,-2.3306,-2.3418,-2.3515,-2.3592,-2.3659,-2.3763,-2.3816,-2.3907,-2.3984,-2.4054,-2.414,-2.422,-2.4272,-2.4313,-2.4348,-2.4441,-2.4449,-2.4443,-2.4546,-2.4548,-2.4513,-2.4455,-2.4417,-2.4404,-2.4484,-2.4485,-2.4485,0,-2.3328,-2.3514,-2.3521,-2.3581,-2.3719,-2.3777,-2.3838,-2.3941,-2.3982,-2.4075,-2.413,-2.4246,-2.429,-2.4356,-2.4431,-2.4462,-2.4447,-2.4506,-2.4511,-2.4492,-2.4493,-2.4457,-2.4454,-2.4491,-2.4492,-2.4492,-2.4484,0,-2.3442,-2.3513,-2.3536,-2.3665,-2.3727,-2.3782,-2.3898,-2.3948,-2.4013,-2.4094,-2.4177,-2.4284,-2.4392,-2.4419,-2.4484,-2.4519,-2.4531,-2.4577,-2.4624,-2.4584,-2.4584,-2.4584,-2.4613,-2.4615,-2.4617,-2.4618,0,0,-2.3426,-2.3529,-2.3635,-2.3698,-2.3757,-2.3865,-2.3913,-2.3984,-2.4123,-2.4162,-2.4189,-2.4366,-2.4452,-2.4542,-2.4539,-2.4583,-2.4601,-2.461,-2.4602,-2.4599,-2.4597,-2.4596,-2.4594,-2.4621,-2.4622,-2.4623,-2.4623,0,-2.3493,-2.3574,-2.3619,-2.3696,-2.3814,-2.3897,-2.3907,-2.4045,-2.4099,-2.4181,-2.4271,-2.4336,-2.4476,-2.4555,-2.4614,-2.4602,-2.4668,-2.4626,-2.4579,-2.4615,-2.461,-2.4606,-2.4603,-2.46,-2.4627,-2.4627,-2.4627,0,-2.3534,-2.3634,-2.3668,-2.3806,-2.3885,-2.3952,-2.4028,-2.4096,-2.4148,-2.4267,-2.4347,-2.4423,-2.454,-2.4609,-2.4645,-2.4671,-2.4722,-2.4727,-2.4719,-2.4726,-2.4767,-2.4761,-2.4755,-2.4824,-2.4824,-2.4824,0,0,-2.3576,-2.3642,-2.3785,-2.3829,-2.3872,-2.3996,-2.4044,-2.4115,-2.4215,-2.4255,-2.4354,-2.445,-2.4534,-2.4585,-2.4669,-2.4729,-2.4763,-2.4746,-2.4737,-2.4729,-2.4731,-2.4769,-2.4763,-2.4825,-2.4825,-2.4825,0,0,-2.3597,-2.3764,-2.3812,-2.3877,-2.3968,-2.4114,-2.4138,-2.42,-2.4287,-2.4294,-2.4419,-2.4451,-2.4518,-2.459,-2.4585,-2.4688,-2.4731,-2.4735,-2.4639,-2.4629,-2.462,-2.4602,-2.468,0,0,0,0,0,-2.3725,-2.3743,-2.3784,-2.3813,-2.3989,-2.409,-2.4114,-2.4216,-2.4244,-2.426,-2.4353,-2.442,-2.4613,-2.4612,-2.4639,-2.4644,-2.4834,-2.4832,-2.4831,-2.4722,-2.471,-2.47,0,0,0,0,0,0,-2.3737,-2.3771,-2.3784,-2.3929,-2.397,-2.4091,-2.416,-2.4189,-2.4245,-2.4256,-2.44,-2.4425,-2.4515,-2.4605,-2.4628,-2.463,-2.4672,-2.4833,-2.4832,-2.4831,-2.4718,-2.4708,-2.47,0,0,0,0,0,-2.3747,-2.3774,-2.403,-2.393,-2.3965,-2.4105,-2.4161,-2.4185,-2.423,-2.4374,-2.4401,-2.4302,-2.4512,-2.4539,-2.4619,-2.4617,-2.4657,-2.4665,-2.4833,-2.4832,-2.4831,-2.4713,0,0,0,0,0,0,-2.3754,-2.3799,-2.404,-2.4055,-2.393,-2.4101,-2.413,-2.4181,-2.4347,-2.4373,-2.4283,-2.429,-2.4511,-2.4532,-2.4552,-2.4606,-2.4644,-2.4653,-2.4658,-2.4832,-2.4831,-2.483,0,0,0,0,0,0,-2.3785,-2.381,-2.4048,-2.4042,-2.4058,-2.4096,-2.4122,-2.4206,-2.4348,-2.4247,-2.4258,-2.4284,-2.4481,-2.4527,-2.4543,-2.4669,-2.4635,-2.4643,-2.4649,-2.4652,-2.4831,-2.483,0,0,0,0,0,0,-2.3797,-2.3819,-2.4039,-2.4051,-2.4064,-2.4237,-2.4172,-2.4348,-2.434,-2.4238,-2.4343,-2.4344,-2.4474,-2.4493,-2.4536,-2.4654,-2.4665,-2.4635,-2.4641,-2.4644,-2.4647,0,0,0,0,0,0,0,-2.3808,-2.3634,-2.3952,-2.4058,-2.407,-2.4191,-2.4195,-2.4199,-2.434,-2.4341,-2.4342,-2.4343,-2.4589,-2.4598,-2.4607,-2.4643,0,0,-2.4634,-2.4638,0,0,0,0,0,0,0,0,-2.3627,-2.3633,-2.3953,-2.3956,-2.3959,-2.4191,-2.4194,-2.4198,-2.4341,-2.4341,-2.4342,-2.4343,-2.4591,-2.4598,-2.4606,0,0,0,0,0,0,0,0,0,0,0,0,0,0,0,-2.3953,-2.3956,0,-2.4192,-2.4194,-2.4197,-2.4341,-2.4341,-2.4342,-2.4343,-2.4593,-2.4599,-2.4605,0,0,0,0,0,0,0,0,0,0,0,0,0,0,0,0,0,0,0,0,0,0,0,0,0,0,0,0,0,0,0,0,0,0,0,0,0,0,0,0,0,0,0,0,0,0,0,0,0,0,0,0,0,0,0,0,0,0,0,0,0,0,0,0,0,0,0,0,0]}],[{"header":{"parameterUnit":"kt","parameterCategory":2,"dx":1,"dy":1,"la1":30.253999710083008,"la2":30.299108505249023,"lo1":-89.0895004272461,"lo2":-89.04439544677734,"nx":28,"ny":28,"refTime":"2022-10-23T21:00:00:Z","depth":0,"parameterNumber":2,"parameterNumberName":"V-component_of_WINDS"},"data":[10.3049,10.3208,10.3221,10.3408,10.345,10.358,10.3631,10.3697,10.3752,10.3909,10.4001,10.4028,10.4088,10.42,10.43,10.431,10.4353,10.4402,10.4406,10.4175,10.4143,10.4114,10.4078,10.4411,10.4411,10.4644,10.4646,10.4648,10.2885,10.2929,10.3031,10.3137,10.3225,10.3186,10.3267,10.3343,10.346,10.3528,10.3619,10.3757,10.3866,10.3909,10.4017,10.4092,10.408,10.4121,10.4116,10.4127,10.388,10.3842,10.4129,10.4129,10.4129,10.4129,10.4129,10.4129,10.259,10.2684,10.2755,10.2865,10.2921,10.2993,10.3084,10.3115,10.3214,10.3327,10.332,10.3451,10.3521,10.3654,10.3701,10.3805,10.376,10.3809,10.3821,10.3834,10.3849,10.3518,10.3822,10.3822,10.3821,10.382,10.382,0,10.2378,10.2382,10.2478,10.258,10.266,10.2739,10.2813,10.2869,10.2877,10.2958,10.3077,10.3146,10.3284,10.3396,10.3498,10.3536,10.3502,10.3498,10.3532,10.354,10.3536,10.3544,10.3144,10.349,10.3487,10.3485,10.3483,10.3482,10.2084,10.2191,10.2268,10.2335,10.2377,10.2484,10.255,10.2548,10.2618,10.2708,10.2791,10.2902,10.2992,10.3178,10.321,10.3313,10.3297,10.3429,10.3312,10.3316,10.3304,10.3299,10.3311,10.3452,10.3456,10.3459,10.3462,0,10.1919,10.1934,10.2102,10.2167,10.2186,10.2298,10.2354,10.2446,10.2464,10.2594,10.2624,10.2653,10.2768,10.2779,10.2911,10.2913,10.3101,10.3082,10.3079,10.3077,10.3198,10.3188,10.3584,10.3637,10.3288,10.3292,10.3294,0,10.1675,10.1814,10.183,10.1926,10.2081,10.2074,10.2228,10.2258,10.2316,10.2418,10.238,10.2477,10.2474,10.2573,10.2576,10.2731,10.2754,10.2767,10.2766,10.2772,10.2771,10.281,10.2795,10.2756,10.2754,10.2752,10.2751,0,10.1416,10.1584,10.174,10.1781,10.1862,10.1936,10.1973,10.2036,10.21,10.2183,10.2225,10.2322,10.2377,10.2453,10.2457,10.2377,10.2644,10.2536,10.2657,10.2657,10.2716,10.2713,10.306,10.2748,10.2748,10.2747,10.2746,0,10.1221,10.1306,10.1528,10.1595,10.1639,10.1741,10.1837,10.1926,10.1995,10.2004,10.2069,10.2045,10.2177,10.207,10.2254,10.2151,10.2207,10.2229,10.2238,10.2252,10.2132,10.233,10.2656,10.2693,10.2264,10.226,10.2257,0,10.0923,10.1149,10.1144,10.1355,10.1461,10.1412,10.1525,10.1586,10.1606,10.17,10.1721,10.1827,10.1748,10.1783,10.1872,10.1899,10.2033,10.188,10.2018,10.2023,10.2005,10.2305,10.2352,10.2583,10.2205,10.2211,10.2214,0,10.0693,10.0787,10.0825,10.0872,10.095,10.1037,10.1166,10.1269,10.1331,10.1402,10.1512,10.1657,10.1606,10.1662,10.1651,10.1744,10.1942,10.1674,10.1676,10.1726,10.2178,10.2224,10.2262,10.1915,10.1921,10.1926,10.2174,0,10.0402,10.0515,10.0616,10.0716,10.0784,10.0914,10.0923,10.0994,10.0977,10.0994,10.1153,10.1203,10.1306,10.135,10.1333,10.1541,10.1508,10.145,10.1347,10.1542,10.1624,10.1657,10.1224,10.1221,10.1219,10.1217,0,0,10.0114,10.0275,10.0263,10.0386,10.0444,10.0388,10.0527,10.0576,10.0675,10.0716,10.0659,10.0872,10.0914,10.1106,10.1167,10.1207,10.1246,10.1176,10.1448,10.1474,10.1498,10.1586,10.162,10.1212,10.1211,10.121,10.1209,0,10.001,10.0053,10.0189,10.0239,10.0312,10.0323,10.0356,10.0418,10.0435,10.0587,10.054,10.0635,10.0803,10.0856,10.0905,10.1153,10.1112,10.1183,10.1316,10.1422,10.1452,10.1477,10.1569,10.1602,10.1203,10.1204,10.1204,0,9.9787,9.9832,9.9898,10.0021,10.0068,10.0176,10.0071,10.0188,10.0269,10.02,10.0353,10.0381,10.0451,10.0629,10.0708,10.0658,10.099,10.0884,10.0901,10.091,10.1013,10.1048,10.1079,10.0669,10.0667,10.0666,0,0,9.9695,9.9798,9.9844,9.9999,10.0032,10.0049,10.0106,10.0094,10.0157,10.0183,10.0218,10.0282,10.038,10.0444,10.0536,10.0729,10.0744,10.0818,10.0844,10.0864,10.0885,10.0993,10.1028,10.0659,10.0658,10.0658,0,0,9.9651,9.9711,9.9682,9.9862,9.9925,9.998,10.0075,10.004,10.0123,10.0109,10.0094,10.011,10.0275,10.0304,10.0208,10.05,10.0397,10.042,10.0475,10.0507,10.0532,10.0522,10.0107,0,0,0,0,0,9.9548,9.9703,9.9677,9.9708,9.9862,9.9995,10.0015,10.0006,9.9935,10.001,10.0034,9.9985,10.025,10.0165,10.0196,10.0303,10.0567,10.0583,10.0599,10.0714,10.0748,10.0776,0,0,0,0,0,0,9.956,9.9598,9.9672,9.9734,9.9769,9.9989,9.9867,9.9869,9.9926,9.9915,9.9982,9.9987,9.9981,10.0148,10.0177,10.0279,10.0097,10.0573,10.0587,10.06,10.0726,10.0753,10.0776,0,0,0,0,0,9.9569,9.96,9.985,9.9732,9.9762,9.9788,9.9861,9.9861,9.9906,9.9942,9.9945,9.9894,9.9984,10.0007,10.0165,10.0266,10.0077,10.0088,10.0582,10.0593,10.0603,10.0739,0,0,0,0,0,0,9.9576,9.9602,9.9856,9.9865,9.9671,9.9775,9.9791,9.9855,9.9929,9.9934,9.9852,9.9843,9.9989,10.0006,10.0024,10.0262,10.0061,10.0072,10.0079,10.0591,10.0599,10.0607,0,0,0,0,0,0,9.9585,9.961,9.986,9.9785,9.9785,9.9764,9.9778,9.9909,9.9931,9.9835,9.9829,9.9847,9.9961,10.0005,10.0019,10.0224,10.0049,10.0059,10.0066,10.0071,10.0597,10.0604,0,0,0,0,0,0,9.9595,9.9616,9.9782,9.9782,9.9782,9.9881,9.9879,10.0038,9.9866,9.9832,9.985,9.9843,9.9962,9.9976,10.0016,10.0216,10.0222,10.0049,10.0056,10.0061,10.0065,0,0,0,0,0,0,0,9.9603,9.9464,9.9803,9.9781,9.978,9.9947,9.9949,9.9951,9.9865,9.9858,9.9852,9.9846,9.999,10.0001,10.0013,10.0209,0,0,10.0048,10.0053,0,0,0,0,0,0,0,0,9.9455,9.9462,9.9804,9.9805,9.9807,9.9947,9.9949,9.9951,9.9864,9.9858,9.9853,9.9849,9.9993,10.0002,10.0011,0,0,0,0,0,0,0,0,0,0,0,0,0,0,0,9.9804,9.9805,0,9.9947,9.9949,9.995,9.9863,9.9859,9.9854,9.9851,9.9996,10.0003,10.0011,0,0,0,0,0,0,0,0,0,0,0,0,0,0,0,0,0,0,0,0,0,0,0,0,0,0,0,0,0,0,0,0,0,0,0,0,0,0,0,0,0,0,0,0,0,0,0,0,0,0,0,0,0,0,0,0,0,0,0,0,0,0,0,0,0,0,0,0,0]}]]]